Regional Weather Roundup
Issued by NWS Upton, NY

Current Version | Previous Version | Text Only | Print | Product List | Glossary Off
Versions: 1 2 3 4 5 6 7 8 9 10 11 12 13 14 15 16 17 18 19 20 21 22 23 24 25 26 27 28 29 30 31 32 33 34 35 36 37 38 39 40 41 42 43 44 45 46 47 48 49 50

000
ASUS41 KOKX 261008
RWROKX

REGIONAL WEATHER ROUNDUP
NATIONAL WEATHER SERVICE NEW YORK NY
600 AM EDT SUN APR 26 2015

NOTE: "FAIR" INDICATES FEW OR NO CLOUDS BELOW 12,000 FEET WITH NO
SIGNIFICANT WEATHER AND/OR OBSTRUCTIONS TO VISIBILITY.

NYZ071-072-176-178-NJZ106-104-261100-
NEW YORK CITY METRO AREA


CITY           SKY/WX    TMP DP  RH WIND       PRES   REMARKS
CENTRAL PARK   PTCLDY    47  27  45 NE7       29.71R
LAGUARDIA APRT PTCLDY    45  30  55 NE8       29.69R
KENNEDY INTL   MOCLDY    44  29  55 NE8       29.70R
NEWARK/LIBERTY MOCLDY    44  30  57 N10       29.69R
BRNX BOT. GARD   N/A     43  28  56 CALM      29.71R
TETERBORO      PTCLDY    43  29  57 N5        29.69R
$$

NYZ177-179-078>081-261100-
LONG ISLAND NEW YORK

CITY           SKY/WX    TMP DP  RH WIND       PRES   REMARKS
FARMINGDALE    PTCLDY    41  30  65 N6        29.69R
ISLIP          MOCLDY    39  31  72 N6        29.67R WCI  35
SHIRLEY        CLEAR     37  31  78 N5        29.70R WCI  33
WESTHAMPTON    CLEAR     34  29  82 NE5       29.70R WCI  30
MONTAUK POINT    N/A     36  31  82 CALM      29.70R
$$

NYZ052-065-067-261100-
HUDSON VALLEY

CITY           SKY/WX    TMP DP  RH WIND       PRES   REMARKS
WHITE PLAINS   PTCLDY    41  27  57 N5        29.69R
NEWBURGH       CLEAR     34  28  80 CALM      29.72R
MONTGOMERY     CLEAR     30  27  88 CALM      29.71R
POUGHKEEPSIE   CLEAR     31  27  85 CALM      29.72R
ALBANY         CLOUDY    41  29  62 CALM      29.72R
$$

NJZ001-105-106-008-010-013-015-019>022-104-261100-
NEW JERSEY

CITY           SKY/WX    TMP DP  RH WIND       PRES   REMARKS
NEWARK/LIBERTY MOCLDY    44  30  57 N10       29.69R
TETERBORO      PTCLDY    43  29  57 N5        29.69R
CALDWELL       PTCLDY    39  28  64 NE5       29.71R
MORRISTOWN     PTCLDY    37  32  81 CALM      29.70R
SOMERVILLE     PTCLDY    37  28  70 N5        29.67S WCI  33
SUSSEX         PTCLDY    29  26  89 MISG      29.72R
ANDOVER          N/A     32  28  85 CALM      29.71R
TRENTON        MOCLDY    43  27  53 N6        29.68R
MILLVILLE      CLOUDY    45  39  79 NW3       29.65S
ATLANTIC CITY  MOCLDY    43  37  79 NW3       29.65R
WRIGHTSTOWN    CLOUDY    40  33  76 NE9       29.65R WCI  34
TOMS RIVER     PTCLDY    37  32  81 CALM      29.68R
BELMAR         PTCLDY    45  28  53 N8        29.67R
$$

PAZ047>061-062-071-261100-
EASTERN PENNSYLVANIA

CITY           SKY/WX    TMP DP  RH WIND       PRES   REMARKS
PHILADELPHIA   CLOUDY    48  29  47 N8        29.68R
ALLENTOWN      PTCLDY    36  27  69 CALM      29.70R
SCRANTON       CLEAR     31  24  75 E3        29.72R
$$

CTZ002-004>006-009-010-012-RIZ004-006-007-MAZ004-011-015-261100-
SOUTHERN NEW ENGLAND
 IN CT

CITY           SKY/WX    TMP DP  RH WIND       PRES   REMARKS
BRADLEY INTL   MOCLDY    38  30  73 W5        29.69R WCI  34
HARTFORD       MOCLDY    34  30  85 CALM      29.70R
DANBURY        PTCLDY    30  24  78 CALM      29.72R
WTRBRY/OXFORD  CLEAR     36  23  60 CALM      29.70R
BRIDGEPORT     CLEAR     39  30  70 N6        29.70R WCI  35
MERIDEN        CLEAR     33  29  85 CALM      29.71R
NEW HAVEN      PTCLDY    36  28  73 CALM      29.70R
CHESTER        FAIR      37  28  70 CALM      29.69R
GROTON         CLEAR     36  29  75 CALM      29.69R
WILLIMANTIC    CLOUDY    34  31  88 CALM      29.70R

 IN RI

CITY           SKY/WX    TMP DP  RH WIND       PRES   REMARKS
PROVIDENCE     PTCLDY    41  31  67 CALM      29.69R
BLOCK ISLAND   CLEAR     37  30  75 CALM      29.68R
WESTERLY       CLEAR     33  29  85 CALM      29.69R

 IN MA

CITY           SKY/WX    TMP DP  RH WIND       PRES   REMARKS
BOSTON         MOCLDY    43  30  60 NW7       29.67S
WORCESTER      CLOUDY    42  27  55 NW6       29.66R
WESTFIELD      CLOUDY    37  30  75 S3        29.69R
PROVINCETOWN   MOCLDY   N/A N/A N/A NW5       29.66F
NANTUCKET      CLEAR     40  32  73 N9        29.66R WCI  34
$$

ANZ330-335-338-340-345-350-353-355-261100-
COASTAL MARINE OBSERVATIONS


STATION/POSITION TIME  SKY/WX   TEMP    WIND        PRES    VSBY  WAVE
                                AIR SEA DIR/SP/G                  HT/PER
                 (UTC)          (F)     (DEG/KT/KT) (MB)    (MI)  (FT/S)
NY HARB ENTRANCE 0950            46 45   40/ 16/ 17 1004.0          2/ 3
4S FIRE IS       0903               44                N/A           2/ 5
20S FIRE ISLAND  0950            44 43   50/ 12/ 16 1004.4          1/ 5
23SW MTP         NOT AVBL
HUDSON CANYON    NOT AVBL
EXECUTION ROCKS  NOT AVBL
WESTERN LI SOUND NOT AVBL
CENTRAL LI SOUND NOT AVBL
EASTERN LI SOUND 0900            43      40/  4/  4   N/A
ROBBINS REEF     0900            47      10/  8/ 11 1003.8
$$


>>>>>>>>>>>>>>>>>>>>>>>>>>>> KEY <<<<<<<<<<<<<<<<<<<<<<<<<<<
>                                                          <
>     SKY/WX - SKY CONDITION/PRESENT WEATHER               <
>     TMP    - TEMPERATURE IN FAHRENHEIT                   <
>     DP     - DEWPOINT IN FAHRENHEIT                      <
>     RH     - RELATIVE HUMIDITY IN PERCENT                <
>     WIND   - DIRECTION AND SPEED IN MPH                  <
>     PRES   - MEAN SEA LEVEL PRESSURE IN INCHES OF HG     <
>     WCI    - WIND CHILL INDEX                            <
>     VSB    - VISIBILITY IN MILES                         <
>     HX     - HEAT INDEX                                  <
>     TC     - TEMPERATURE IN CELSIUS                      <
>     VRB    - VARIABLE WIND DIRECTION                     <
>                                                          <
>>>>>>>>>>>>>>>>>>>>>>>>>>>> KEY <<<<<<<<<<<<<<<<<<<<<<<<<<<





USA.gov is the U.S. government's official web portal to all federal, state and local government web resources and services.